Weather History for Moab, UT

Change the Weather History Date:

Wednesday, May 1, 2013

  Actual Average Record
Temperature  
Mean Temperature 52 °F 57 °F  
Max Temperature 64 °F 72 °F 94 °F (1981)
Min Temperature 39 °F 43 °F 25 °F (2011)
Degree Days  
Heating Degree Days 13 8  
Month to date heating degree days 13 8  
Since 1 July heating degree days 5943 5433  
Cooling Degree Days 0 0  
Month to date cooling degree days 0 0  
Year to date cooling degree days 1 3  
Growing Degree Days 2 (Base 50)    
Moisture  
Dew Point 11 °F    
Average Humidity 38    
Maximum Humidity 70    
Minimum Humidity 5    
Precipitation  
Precipitation 0.00 in 0.02 in 0.45 in (1973)
Month to date precipitation 0.00 0.02  
Year to date precipitation 1.11 2.64  
Sea Level Pressure  
Sea Level Pressure 30.07 in    
Wind  
Wind Speed 13 mph (NNW)    
Max Wind Speed 32 mph    
Max Gust Speed 45 mph    
Visibility 10 miles    
Events Rain    
T = Trace of Precipitation, MM = Missing Value Source: NWS Daily Summary

Daily Weather History Graph

Daily Weather History Graph

Search for Another Location

Airport:

Trip Planner

Search our weather history database for the weather conditions in past years. The results will help you decide how hot, cold, wet, or windy it might be!

Date:

Astronomy

May. 01, 2013 Rise Set
Actual Time 6:21 AM MDT 8:11 PM MDT
Civil Twilight 5:52 AM MDT 8:40 PM MDT
Nautical Twilight 5:17 AM MDT 9:15 PM MDT
Astronomical Twilight 4:40 AM MDT 9:52 PM MDT
Moon 1:23 AM MDT (5/1) 12:03 PM MDT (5/1)
Length of Visible Light 14h 48m
Length of Day
13h 50m
Waning Gibbous, 58% of the Moon is Illuminated
May 1
Waning Gibbous
May 2
Last Quarter
May 9
New
May 17
First Quarter
May 24
Full

Hourly Weather History & Observations

Time (MDT) Temp. Windchill Dew Point Humidity Pressure Visibility Wind Dir Wind Speed Gust Speed Precip Events Conditions
12:28 AM 53.6 °F - 26.6 °F 35% 29.86 in 8.0 mi ENE 40.3 mph 47.2 mph N/A   Overcast
12:53 AM 50.0 °F - 33.1 °F 52% 29.81 in 10.0 mi East 28.8 mph 39.1 mph 0.00 in Rain Light Rain
1:53 AM 46.9 °F - 34.0 °F 61% 29.85 in 10.0 mi East 16.1 mph 23.0 mph N/A   Overcast
2:53 AM 46.0 °F 43.1 °F 35.1 °F 66% 29.86 in 10.0 mi East 5.8 mph - N/A   Mostly Cloudy
3:53 AM 44.1 °F 41.5 °F 33.1 °F 65% 29.89 in 10.0 mi NE 4.6 mph - N/A   Partly Cloudy
4:53 AM 42.1 °F - 32.0 °F 67% 29.91 in 10.0 mi Calm Calm - N/A   Clear
5:53 AM 43.0 °F 38.8 °F 34.0 °F 71% 29.94 in 10.0 mi NE 6.9 mph - N/A   Clear
6:53 AM 39.9 °F 34.5 °F 30.9 °F 70% 30.00 in 10.0 mi NW 8.1 mph - N/A   Clear
7:53 AM 45.0 °F 39.3 °F 9.0 °F 23% 30.02 in 10.0 mi NW 11.5 mph - N/A   Mostly Cloudy
8:53 AM 48.0 °F - 5.0 °F 17% 30.04 in 10.0 mi Calm Calm - N/A   Partly Cloudy
9:53 AM 52.0 °F - -5.1 °F 9% 30.03 in 10.0 mi WNW 10.4 mph 19.6 mph N/A   Clear
10:53 AM 54.0 °F - -7.1 °F 8% 30.05 in 10.0 mi NW 20.7 mph 26.5 mph N/A   Clear
11:53 AM 64.0 °F - -2.9 °F 7% 30.06 in - North - - N/A   Clear
12:53 PM 55.9 °F - -6.0 °F 8% 30.10 in 10.0 mi WNW 20.7 mph 31.1 mph N/A   Clear
1:53 PM 57.9 °F - -9.9 °F 6% 30.10 in 10.0 mi WNW 24.2 mph 34.5 mph N/A   Clear
2:53 PM 59.0 °F - -11.0 °F 6% 30.11 in 10.0 mi WNW 26.5 mph 35.7 mph N/A   Clear
3:53 PM 59.0 °F - -6.0 °F 7% 30.12 in 10.0 mi West 21.9 mph 44.9 mph N/A   Clear
4:53 PM 60.1 °F - -2.0 °F 8% 30.13 in 10.0 mi WNW 19.6 mph 29.9 mph N/A   Clear
5:53 PM 59.0 °F - 3.0 °F 11% 30.15 in 10.0 mi WNW 19.6 mph 24.2 mph N/A   Clear
6:53 PM 57.0 °F - 3.9 °F 12% 30.18 in 10.0 mi WNW 17.3 mph 25.3 mph N/A   Clear
7:53 PM 54.0 °F - 7.0 °F 15% 30.20 in 10.0 mi NW 15.0 mph - N/A   Clear
8:53 PM 51.1 °F - 5.0 °F 15% 30.24 in 10.0 mi NNW 8.1 mph - N/A   Clear
9:53 PM 48.9 °F - 9.0 °F 20% 30.29 in 10.0 mi NNE 12.7 mph - N/A   Partly Cloudy
10:53 PM 44.1 °F - 10.0 °F 25% 30.35 in 10.0 mi Calm Calm - N/A   Clear
11:53 PM 45.0 °F 37.6 °F 19.0 °F 36% 30.36 in 10.0 mi NE 17.3 mph 24.2 mph N/A   Clear